This is the latest recevied weather packets stored in our database for station/object W4OTS. If no packets are shown the sender has not sent any weather packets the latest 10 day(s).
| Time | Temp. | Humidity | Pressure | Rain* | Wind** | Luminosity | Snow |
|---|---|---|---|---|---|---|---|
| 1777889082 | 5.56° C | 95% | 1018.8 hPa | 0 mm | - | 0 W/m² | - |
| 1777888779 | 6.11° C | 94% | 1019 hPa | 0 mm | - | 0 W/m² | - |
| 1777888476 | 6.11° C | 93% | 1018.5 hPa | 0 mm | - | 0 W/m² | - |
| 1777888172 | 6.11° C | 92% | 1018.8 hPa | 0 mm | - | 0 W/m² | - |
| 1777887869 | 6.67° C | 91% | 1018.5 hPa | 0 mm | - | 0 W/m² | - |
| 1777887567 | 6.67° C | 90% | 1018.8 hPa | 0 mm | - | 0 W/m² | - |
| 1777887267 | 6.67° C | 90% | 1018.9 hPa | 0 mm | - | 0 W/m² | - |
| 1777886963 | 6.67° C | 93% | 1018.8 hPa | 0 mm | - | 0 W/m² | - |
| 1777886659 | 6.67° C | 95% | 1019 hPa | 0 mm | - | 0 W/m² | - |
| 1777886357 | 6.67° C | 94% | 1019.3 hPa | 0 mm | - | 0 W/m² | - |
| 1777886054 | 6.67° C | 95% | 1019.2 hPa | 0 mm | - | 0 W/m² | - |
| 1777885752 | 6.67° C | 94% | 1019.2 hPa | 0 mm | - | 0 W/m² | - |
| 1777885450 | 6.67° C | 96% | 1019.2 hPa | 0 mm | - | 0 W/m² | - |
| 1777885149 | 6.67° C | 96% | 1018.9 hPa | 0 mm | - | 0 W/m² | - |
| 1777884845 | 6.67° C | 95% | 1019.1 hPa | 0 mm | - | 0 W/m² | - |
| 1777884542 | 6.67° C | 95% | 1019.1 hPa | 0 mm | - | 0 W/m² | - |
| 1777884239 | 6.67° C | 95% | 1018.9 hPa | 0 mm | - | 0 W/m² | - |
| 1777883935 | 6.67° C | 94% | 1018.9 hPa | 0 mm | - | 0 W/m² | - |
| 1777883632 | 6.67° C | 93% | 1018.6 hPa | 0 mm | - | 0 W/m² | - |
| 1777883327 | 6.67° C | 93% | 1018.8 hPa | 0 mm | - | 0 W/m² | - |
| 1777883024 | 6.67° C | 93% | 1018.7 hPa | 0 mm | - | 0 W/m² | - |
| 1777882721 | 6.67° C | 93% | 1018.8 hPa | 0 mm | - | 0 W/m² | - |
| 1777882417 | 7.22° C | 91% | 1018.5 hPa | 0 mm | - | 0 W/m² | - |
| 1777882113 | 7.22° C | 90% | 1018.6 hPa | 0 mm | - | 0 W/m² | - |
| 1777881811 | 7.22° C | 90% | 1018.6 hPa | 0 mm | - | 0 W/m² | - |
* Rain latest hour (hover to see other rain measurements)
** Current wind speed in m/s (hover to see current wind gust speed)